Temperature
19 19 19 19 19 19 19 19 19 19 19 19 19 19 19 19 19 19 19 19 19 18 18 18 18 18 18 18 18 18 18 18 18 18 18 18 18 18 18 18 18 18 18
19 19 19 19 19 19 19 19 19 19 19 19 19 19 19 19 19 19 19 19 19 18 18 18 18 18 18 18 18 18 18 18 18 18 18 18 18 18 18 18 18 18 17
19 19 19 19 19 19 19 19 19 19 19 19 19 19 19 19 19 19 19 19 19 18 18 18 18 18 18 18 18 18 18 18 18 18 18 18 18 18 18 18 18 18 17
19 19 19 19 19 19 19 19 19 19 19 19 19 19 19 19 19 19 18 18 19 18 18 18 18 18 18 18 18 18 18 18 18 18 18 18 18 18 18 18 18 18 17
19 19 19 19 19 19 19 19 19 19 19 19 19 19 19 18 18 18 18 18 18 18 18 18 18 18 18 18 18 18 18 18 18 18 18 18 18 18 18 18 18 18 17
19 19 19 19 19 19 19 19 19 19 19 19 19 19 19 18 18 18 18 18 18 18 18 18 18 18 18 18 18 18 18 18 18 18 18 18 18 18 18 18 18 18 17
19 19 19 19 19 19 19 19 19 19 19 19 19 19 19 18 18 18 18 18 18 18 18 18 18 18 18 18 18 18 18 18 18 18 18 18 18 18 18 18 18 17 17
19 19 19 19 19 19 19 19 19 19 19 19 19 19 19 19 18 18 18 18 18 18 18 18 18 18 18 18 18 18 18 18 18 18 18 18 18 18 18 17 17 17 17
19 19 19 19 19 19 19 19 19 19 19 19 19 19 19 19 19 19 19 19 18 18 18 18 18 18 18 18 18 18 18 18 18 18 18 18 18 18 17 17 17 17 17
19 19 19 19 19 19 19 19 19 19 19 19 19 19 19 19 19 19 18 18 18 18 18 18 18 18 18 18 18 18 18 18 18 18 18 18 18 18 17 17 17 17 17
19 19 19 19 19 19 19 19 19 19 19 19 19 18 18 18 18 18 18 18 18 18 18 18 18 18 18 18 18 18 18 18 18 18 18 18 18 18 17 17 17 17 17
19 19 19 19 19 19 19 19 19 19 18 18 18 18 18 18 18 18 18 18 18 18 18 18 18 18 18 18 18 18 18 18 18 18 18 18 17 17 17 17 17 17 17
20 19 19 19 19 19 19 19 19 19 18 18 18 18 18 18 18 18 18 18 18 18 18 18 18 18 18 18 18 18 18 18 18 18 18 18 17 17 17 17 17 17 17
20 20 20 19 19 19 19 19 19 19 18 18 18 18 18 18 18 18 18 18 18 18 18 18 18 18 18 18 18 18 18 18 18 18 18 18 17 17 17 17 17 17 17
20 20 20 19 19 19 19 19 19 19 19 18 18 18 18 18 18 18 18 18 18 18 18 18 18 18 18 18 18 18 18 18 18 18 18 18 17 17 17 17 17 17 17
20 20 20 20 19 19 19 19 19 19 19 18 18 18 18 18 18 18 18 18 18 18 18 18 18 18 18 18 18 18 18 18 18 18 18 18 17 17 17 17 17 17 17
20 20 20 20 19 19 19 19 19 19 19 18 18 18 18 18 18 18 18 18 18 18 18 18 18 18 18 18 18 18 18 18 18 18 18 18 17 17 17 17 17 17 17
20 20 20 20 20 19 19 19 19 19 19 18 18 18 18 18 18 18 18 18 18 18 18 18 18 18 18 18 18 18 18 18 18 18 18 18 17 17 17 17 17 17 17
21 20 20 20 20 20 19 19 19 19 19 18 18 18 18 18 18 18 18 18 18 18 18 18 18 18 18 18 18 18 18 18 18 18 18 18 18 17 17 17 17 17 17
21 20 20 20 20 20 19 19 19 19 19 19 18 18 18 18 18 18 18 18 18 18 18 18 18 18 18 18 18 18 18 18 18 18 18 18 18 17 17 17 17 17 17
21 21 20 20 20 20 19 19 19 19 19 19 19 18 18 18 18 18 18 18 18 18 18 18 18 18 18 18 18 18 18 18 18 18 18 18 18 17 17 17 17 17 17
21 21 20 20 20 20 20 19 19 19 19 19 19 18 18 18 18 18 18 18 18 18 18 18 18 18 18 18 18 18 18 18 18 18 18 18 18 18 18 17 17 17 17
21 21 21 21 20 20 20 19 19 19 19 19 19 18 18 18 18 18 18 18 18 18 18 18 18 18 18 18 18 18 18 18 18 18 18 18 18 18 18 18 18 17 17
22 21 21 21 20 20 20 19 19 19 19 19 19 19 19 19 19 18 18 18 18 18 18 18 18 18 18 18 18 18 18 18 17 18 18 18 18 18 18 18 18 17 17
22 22 21 21 20 20 20 20 19 19 19 19 19 19 19 19 19 18 18 18 18 18 18 18 18 18 18 18 18 18 18 18 17 17 17 18 18 18 18 18 17 17 17
22 22 22 21 21 20 20 20 20 20 19 19 19 19 19 19 19 19 18 18 19 19 18 18 18 18 18 18 18 18 18 17 17 17 17 17 17 18 18 18 17 17 17
Wind_Speed
1 1 5 7 8 9 10 10 11 11 11 11 11 11 12 13 14 15 16 17 18 19 20 20 20 20 19 19 20 20 19 18 18 16 16 16 16 16 15 15 15 13 15
1 1 6 8 8 9 10 10 11 11 12 11 12 13 13 13 14 15 16 17 18 19 19 20 20 20 20 20 20 19 18 17 17 16 16 15 15 15 14 14 14 12 15
2 2 6 8 9 9 10 10 10 11 12 11 12 13 14 15 15 15 16 17 18 18 19 20 20 20 20 20 19 18 17 16 15 15 14 12 12 13 14 14 14 14 14
4 3 6 9 9 9 10 10 10 11 11 11 12 13 14 15 15 16 16 17 17 18 19 19 19 19 19 18 18 17 16 16 15 13 10 10 10 13 14 14 14 13 13
4 4 6 9 9 9 9 10 10 10 11 11 11 13 14 14 15 16 16 17 17 18 19 19 19 19 18 17 16 16 15 14 14 11 9 9 10 12 13 13 13 13 12
4 5 6 9 9 9 9 9 9 10 11 11 11 12 13 14 15 15 16 16 17 18 18 18 18 17 17 16 15 15 14 14 12 10 9 9 9 11 12 12 12 12 12
4 4 6 9 8 9 9 9 9 10 10 10 11 12 13 13 14 15 15 16 16 17 17 17 16 16 15 14 13 13 13 12 10 9 8 8 8 10 10 11 11 11 11
5 4 5 8 8 8 8 9 9 10 10 10 12 12 13 13 13 13 14 14 15 16 15 15 14 14 14 12 12 11 11 10 9 8 7 7 8 9 9 9 9 9 10
5 4 3 4 6 7 8 8 8 9 10 11 12 12 12 12 12 11 12 13 14 14 14 13 13 13 12 11 10 10 9 9 8 7 7 6 8 8 8 8 9 9 9
4 4 3 3 4 4 5 6 7 8 9 10 11 11 11 11 10 10 10 11 12 12 12 12 12 11 10 10 9 8 8 8 7 6 5 6 8 8 8 8 8 8 8
3 2 2 2 2 3 3 4 5 6 7 8 8 9 9 7 7 7 9 10 10 10 10 10 9 9 9 8 7 6 6 5 6 5 5 6 8 8 8 8 8 8 8
3 2 2 2 1 2 2 3 3 4 4 5 5 6 6 6 5 7 8 9 9 9 8 8 7 7 6 4 4 5 4 5 5 4 4 6 7 8 7 7 7 7 8
3 3 2 2 2 2 1 2 2 2 3 3 4 5 5 5 4 5 4 4 4 5 5 5 5 4 4 3 3 3 4 4 3 3 5 6 6 7 7 7 6 6 7
3 3 2 3 2 2 1 1 1 1 1 1 2 4 4 3 2 3 3 3 2 2 3 3 2 3 3 2 3 3 3 3 3 3 4 6 6 6 7 6 6 5 6
5 4 3 3 3 2 2 1 2 1 2 2 2 3 4 3 2 2 2 2 2 2 2 2 2 3 2 2 3 3 3 3 3 3 3 5 6 6 6 6 6 6 6
6 5 4 4 4 3 3 2 2 2 2 2 2 3 4 3 2 2 2 2 1 1 2 2 2 2 2 2 2 2 2 3 3 3 4 4 5 6 7 7 7 7 7
6 6 5 5 4 4 4 3 3 2 3 2 2 3 3 4 3 2 2 1 1 2 3 3 3 3 2 2 2 1 1 2 3 4 4 4 4 6 7 7 7 7 8
6 6 6 6 5 4 4 3 2 3 3 2 2 3 4 4 4 3 2 1 2 3 3 2 2 2 2 1 1 0 0 1 2 3 4 4 5 5 6 7 8 8 8
6 6 6 5 6 5 4 3 2 2 2 2 3 3 4 4 5 4 2 2 3 3 2 2 2 2 2 1 1 0 1 1 2 3 3 4 5 5 5 6 8 9 9
6 5 6 5 5 5 4 3 2 1 1 1 2 3 4 4 5 4 3 3 3 3 2 2 2 2 2 1 1 1 1 2 2 3 3 3 4 6 6 6 6 7 10
6 6 6 6 5 5 3 3 2 1 1 1 2 3 4 4 5 4 3 3 3 3 3 3 3 3 2 2 2 1 2 1 2 2 2 3 4 5 6 7 7 7 8
8 7 6 6 6 5 4 3 2 2 1 1 1 1 3 4 5 4 4 3 3 3 3 3 3 2 1 1 2 1 2 3 2 1 1 3 3 3 5 6 7 7 8
8 9 9 7 6 5 5 3 3 2 2 1 0 1 1 2 3 3 4 3 3 3 3 3 4 3 2 1 1 2 1 1 2 2 1 2 2 2 3 4 5 6 7
10 9 8 7 6 6 6 5 5 4 3 2 2 1 1 1 2 3 4 4 4 3 3 3 4 3 3 2 1 1 1 2 1 2 2 1 2 2 3 3 4 5 6
10 9 8 7 6 6 6 7 6 4 3 2 1 1 0 0 1 2 3 3 4 3 4 3 3 4 3 3 2 2 1 1 1 1 3 3 2 2 2 3 3 4 5
8 8 8 8 7 6 6 6 6 6 5 3 2 2 1 1 0 1 2 2 3 3 3 4 4 4 4 4 3 2 2 2 2 2 3 3 3 3 2 2 3 3 4
Wind_Direction
341 7 100 97 95 94 94 92 91 90 91 93 97 98 105 110 116 122 125 127 130 132 131 131 129 126 125 126 126 125 126 128 131 131 133 134 133 130 128 125 121 119 120
125 74 105 99 97 98 96 94 93 94 94 95 98 97 102 109 112 117 122 124 126 128 129 129 128 126 126 125 124 125 127 129 132 133 132 131 131 130 129 126 124 125 125
99 106 110 105 100 98 97 96 95 97 97 97 98 98 99 103 108 112 117 122 125 126 126 126 127 126 126 126 126 127 129 132 131 129 125 125 129 133 132 131 128 127 127
115 108 113 110 103 101 99 97 95 96 100 100 99 102 103 105 108 112 114 119 123 124 126 126 126 127 126 127 128 129 131 131 127 124 119 125 131 134 133 132 131 129 129
114 111 118 112 107 103 100 95 95 97 99 101 102 104 106 108 110 113 115 117 119 121 123 126 127 128 128 129 129 131 132 130 129 123 119 121 127 135 135 136 136 136 136
116 116 126 116 109 103 100 98 95 95 99 102 104 106 106 107 110 112 113 115 117 119 122 124 126 128 128 129 129 130 130 128 126 122 122 125 130 138 142 144 145 143 143
115 114 126 118 109 105 102 96 92 95 99 103 108 110 109 107 107 110 111 114 117 121 124 124 126 128 129 129 129 129 129 131 124 123 125 132 140 144 145 147 148 150 147
110 105 119 121 116 109 104 99 94 97 98 101 112 113 112 110 108 108 110 114 117 121 123 124 126 126 127 128 128 129 131 132 129 132 133 137 145 148 150 151 151 150 148
92 87 85 111 114 112 105 99 96 100 100 100 106 111 111 110 109 109 111 116 118 121 123 125 126 126 129 130 132 135 134 132 129 134 140 148 154 157 159 154 152 152 156
87 83 75 78 90 99 109 106 98 97 101 102 103 105 106 106 108 110 111 117 120 123 124 126 128 129 129 130 132 136 137 133 132 137 144 157 161 164 164 160 162 159 163
112 88 90 84 90 102 113 113 101 96 95 94 96 100 95 88 90 100 112 118 121 124 127 128 127 126 126 127 129 130 125 123 135 139 152 164 169 169 169 170 171 170 174
169 158 133 124 112 114 119 101 84 85 78 75 75 82 82 81 86 94 105 116 119 122 124 126 125 123 120 122 130 127 119 125 133 144 163 170 174 177 175 180 181 180 182
179 177 170 167 147 133 95 108 92 78 73 70 72 83 84 77 70 69 71 82 92 109 105 112 106 107 117 126 135 140 142 141 148 157 160 168 178 184 185 191 188 187 188
174 197 186 163 149 158 134 119 116 106 104 101 95 102 102 86 68 73 71 58 53 67 78 87 96 96 99 119 140 145 151 157 162 167 172 179 186 191 192 193 191 194 195
189 200 193 172 170 168 149 172 150 154 159 155 134 127 129 124 107 100 102 89 75 86 92 102 104 106 108 114 136 144 154 165 172 176 185 192 198 200 198 197 201 203 205
197 201 190 183 182 167 165 172 166 173 169 163 165 162 154 151 138 119 105 100 97 112 123 122 128 122 118 120 123 137 156 173 177 187 202 209 209 211 216 216 213 214 215
194 192 186 184 177 173 175 179 171 172 162 165 177 177 170 163 153 145 119 106 111 106 102 99 95 102 112 108 108 136 164 186 194 201 208 212 219 223 225 223 221 222 222
181 180 185 181 170 176 174 169 163 166 166 180 188 190 186 176 167 157 143 148 129 111 106 107 101 103 100 99 106 147 191 215 222 215 211 215 220 229 234 232 231 232 234
179 174 174 173 167 169 158 148 148 154 171 189 192 192 192 189 179 165 162 154 134 120 115 127 115 123 123 101 89 4 267 242 243 228 220 220 223 226 232 242 245 243 242
173 169 169 168 164 151 137 125 109 113 152 190 203 208 200 195 185 165 161 150 137 127 122 122 130 121 136 144 112 26 311 267 245 237 237 232 229 229 230 235 245 252 251
167 168 173 170 166 150 141 148 146 186 199 207 223 218 211 197 184 173 167 155 149 152 155 143 131 123 117 112 91 15 337 290 249 241 235 234 240 238 233 233 237 243 254
179 178 179 180 173 170 166 159 153 154 177 211 235 232 211 193 188 182 170 170 164 154 147 146 136 130 122 119 123 87 351 340 336 274 243 233 244 241 240 238 230 235 243
187 188 191 188 180 176 162 133 113 87 66 70 61 268 242 203 196 188 177 170 172 167 175 177 166 158 170 166 151 148 151 264 311 317 279 258 256 248 248 244 235 232 235
196 189 187 183 180 176 164 159 157 165 182 203 200 218 250 187 184 188 183 178 181 179 183 190 183 175 169 184 180 185 185 172 197 314 319 308 285 261 260 255 241 236 237
191 184 184 176 180 178 175 175 170 175 184 173 152 174 215 173 179 182 178 177 180 184 190 190 181 181 180 182 182 173 153 138 184 214 289 314 317 282 270 258 251 246 243
183 179 179 176 185 182 179 179 179 180 177 169 181 199 224 216 188 184 178 178 184 188 197 200 195 189 191 189 186 180 173 176 197 202 243 279 296 294 287 263 253 252 249
Height
1491 1490 1489 1489 1488 1488 1488 1488 1488 1488 1487 1487 1487 1487 1487 1487 1487 1488 1490 1492 1494 1497 1499 1503 1506 1509 1512 1515 1518 1521 1524 1527 1530 1533 1536 1538 1540 1542 1543 1545 1547 1548 1549
1492 1492 1492 1492 1491 1491 1490 1490 1490 1490 1490 1490 1489 1489 1489 1489 1490 1492 1493 1495 1497 1500 1503 1506 1508 1512 1515 1518 1521 1524 1527 1530 1533 1535 1537 1539 1541 1543 1545 1546 1548 1549 1551
1493 1494 1494 1493 1494 1493 1493 1493 1492 1492 1492 1492 1492 1492 1492 1493 1494 1495 1497 1498 1500 1503 1505 1508 1512 1515 1517 1520 1523 1526 1529 1532 1535 1537 1539 1541 1543 1545 1546 1548 1549 1550 1552
1495 1495 1496 1495 1496 1496 1495 1495 1495 1494 1494 1494 1495 1495 1496 1497 1497 1499 1500 1501 1503 1506 1508 1511 1514 1517 1520 1523 1526 1529 1531 1534 1536 1539 1541 1543 1545 1546 1548 1549 1550 1551 1553
1495 1497 1498 1498 1498 1498 1498 1497 1497 1496 1496 1496 1497 1498 1499 1500 1501 1502 1503 1505 1507 1509 1512 1515 1518 1520 1523 1526 1529 1531 1534 1536 1539 1541 1542 1544 1546 1547 1549 1550 1551 1553 1554
1496 1499 1500 1500 1500 1500 1500 1500 1499 1498 1498 1498 1499 1500 1501 1503 1504 1505 1507 1508 1511 1513 1516 1518 1521 1524 1526 1529 1532 1534 1536 1539 1541 1542 1544 1546 1547 1549 1550 1552 1553 1554 1555
1498 1501 1502 1503 1503 1503 1502 1502 1500 1499 1499 1499 1500 1502 1504 1505 1507 1509 1510 1512 1514 1516 1519 1521 1524 1526 1529 1532 1534 1537 1539 1540 1542 1544 1546 1547 1549 1550 1551 1553 1553 1554 1555
1502 1504 1505 1505 1505 1505 1505 1504 1503 1502 1501 1500 1501 1504 1506 1508 1510 1511 1513 1515 1517 1520 1522 1524 1527 1529 1532 1534 1537 1539 1541 1542 1544 1545 1547 1548 1549 1551 1552 1553 1554 1555 1556
1505 1506 1507 1508 1508 1508 1508 1507 1506 1505 1505 1504 1505 1507 1509 1511 1513 1515 1516 1519 1520 1523 1525 1528 1530 1532 1535 1537 1539 1541 1542 1544 1545 1547 1548 1549 1550 1551 1552 1554 1555 1556 1557
1508 1509 1510 1510 1510 1510 1511 1511 1510 1509 1509 1509 1510 1511 1513 1514 1516 1518 1520 1522 1524 1526 1528 1531 1533 1535 1537 1539 1541 1543 1544 1545 1547 1548 1549 1550 1551 1552 1553 1554 1555 1556 1557
1510 1511 1512 1512 1513 1513 1514 1514 1514 1513 1513 1514 1514 1516 1517 1518 1520 1521 1523 1525 1527 1529 1531 1533 1535 1537 1539 1541 1543 1544 1546 1547 1548 1549 1550 1551 1552 1552 1553 1554 1555 1556 1557
1512 1513 1513 1514 1515 1516 1516 1517 1517 1517 1517 1518 1519 1520 1521 1522 1523 1524 1526 1528 1530 1532 1534 1536 1538 1540 1541 1543 1544 1546 1547 1548 1549 1550 1551 1552 1553 1553 1554 1554 1556 1556 1557
1514 1514 1515 1516 1517 1518 1519 1519 1520 1520 1521 1522 1523 1523 1524 1525 1526 1527 1529 1531 1533 1535 1536 1538 1540 1542 1543 1544 1546 1547 1548 1549 1550 1551 1552 1553 1553 1554 1554 1555 1556 1556 1557
1515 1516 1517 1518 1519 1520 1520 1521 1522 1523 1524 1525 1526 1527 1527 1528 1529 1530 1531 1533 1535 1537 1538 1540 1541 1543 1544 1546 1547 1548 1549 1550 1551 1552 1553 1553 1553 1554 1554 1555 1556 1556 1557
1516 1517 1519 1519 1520 1521 1522 1523 1524 1525 1526 1527 1528 1529 1530 1531 1531 1532 1534 1535 1537 1538 1540 1541 1543 1544 1545 1547 1548 1548 1549 1550 1551 1552 1553 1553 1554 1554 1554 1555 1555 1556 1557
1517 1518 1519 1521 1522 1523 1523 1524 1525 1527 1528 1529 1530 1531 1532 1533 1534 1535 1536 1537 1538 1540 1541 1542 1544 1545 1546 1547 1548 1549 1549 1550 1551 1552 1552 1553 1553 1554 1554 1555 1555 1555 1556
1517 1519 1520 1521 1523 1524 1525 1526 1527 1528 1529 1530 1531 1533 1534 1535 1536 1537 1537 1538 1539 1541 1542 1543 1545 1546 1547 1547 1548 1549 1550 1550 1551 1552 1552 1553 1553 1553 1554 1554 1554 1554 1555
1517 1519 1520 1522 1523 1524 1525 1527 1528 1529 1530 1531 1532 1534 1535 1536 1537 1538 1538 1539 1540 1542 1543 1544 1545 1546 1547 1548 1548 1549 1550 1550 1551 1551 1552 1552 1552 1553 1553 1553 1553 1553 1553
1517 1519 1520 1522 1523 1525 1526 1527 1528 1530 1531 1532 1533 1534 1535 1536 1537 1538 1539 1540 1541 1542 1543 1544 1545 1546 1547 1548 1549 1549 1550 1550 1550 1551 1551 1551 1551 1552 1552 1552 1552 1552 1552
1517 1519 1521 1522 1524 1525 1526 1527 1529 1530 1531 1532 1533 1534 1536 1537 1538 1539 1539 1540 1541 1542 1543 1544 1545 1546 1547 1548 1548 1549 1549 1549 1550 1550 1550 1550 1550 1550 1550 1550 1550 1550 1550
1517 1518 1520 1522 1523 1525 1526 1527 1528 1529 1531 1532 1533 1534 1535 1536 1537 1538 1539 1540 1541 1542 1543 1544 1545 1546 1547 1547 1548 1548 1548 1549 1549 1549 1549 1549 1549 1549 1549 1549 1548 1548 1549
1515 1517 1519 1521 1523 1524 1526 1527 1529 1530 1531 1532 1533 1534 1535 1536 1537 1538 1539 1540 1541 1542 1543 1544 1545 1545 1546 1547 1548 1548 1548 1549 1548 1548 1548 1548 1548 1548 1548 1547 1547 1547 1547
1514 1516 1518 1520 1522 1524 1526 1527 1528 1530 1531 1532 1533 1534 1535 1536 1537 1537 1538 1540 1541 1542 1543 1544 1544 1545 1546 1547 1547 1548 1548 1547 1547 1547 1547 1547 1547 1546 1546 1546 1545 1545 1545
1511 1514 1517 1519 1522 1523 1525 1526 1527 1528 1530 1531 1532 1534 1535 1535 1536 1537 1538 1539 1540 1541 1542 1543 1544 1544 1545 1545 1546 1547 1547 1547 1547 1546 1546 1546 1545 1545 1544 1544 1544 1543 1543
1509 1512 1515 1518 1520 1522 1524 1525 1527 1528 1529 1531 1532 1533 1534 1535 1536 1536 1537 1538 1539 1540 1541 1542 1543 1543 1544 1544 1545 1545 1546 1546 1546 1545 1544 1544 1543 1543 1543 1542 1542 1541 1541
1507 1510 1513 1516 1518 1520 1522 1524 1525 1527 1528 1530 1531 1532 1533 1534 1535 1536 1536 1537 1538 1539 1540 1541 1541 1542 1542 1543 1544 1544 1544 1544 1544 1544 1543 1542 1541 1541 1540 1540 1539 1539 1539